This is the latest recevied weather packets stored in our database for station/object DB0OHA-10. If no packets are shown the sender has not sent any weather packets the latest 10 day(s).
| Time | Temp. | Humidity | Pressure | Rain* | Wind** | Luminosity | Snow |
|---|---|---|---|---|---|---|---|
| 1777584686 | 8.89° C | 63% | 1029 hPa | 0 mm | - | 0 W/m² | - |
| 1777584619 | 8.89° C | 63% | 1029 hPa | 0 mm | - | 0 W/m² | - |
| 1777583719 | 8.89° C | 63% | 1028.9 hPa | 0 mm | - | 0 W/m² | - |
| 1777582819 | 8.89° C | 63% | 1029.1 hPa | 0 mm | - | 0 W/m² | - |
| 1777581919 | 8.89° C | 63% | 1029.1 hPa | 0 mm | - | 0 W/m² | - |
| 1777581019 | 9.44° C | 63% | 1029.2 hPa | 0 mm | - | 0 W/m² | - |
| 1777580119 | 9.44° C | 62% | 1029.1 hPa | 0 mm | - | 0 W/m² | - |
| 1777579219 | 9.44° C | 62% | 1029 hPa | 0 mm | - | 0 W/m² | - |
| 1777578319 | 10° C | 61% | 1029.1 hPa | 0 mm | - | 0 W/m² | - |
| 1777577419 | 10° C | 60% | 1029 hPa | 0 mm | - | 0 W/m² | - |
| 1777576519 | 10.56° C | 58% | 1028.9 hPa | 0 mm | - | 0 W/m² | - |
| 1777575619 | 11.11° C | 57% | 1028.9 hPa | 0 mm | - | 0 W/m² | - |
| 1777574719 | 12.22° C | 53% | 1028.7 hPa | 0 mm | - | 0 W/m² | - |
| 1777573819 | 13.33° C | 49% | 1028.8 hPa | 0 mm | - | 9 W/m² | - |
| 1777572962 | 13.89° C | 48% | 1028.6 hPa | 0 mm | - | 19 W/m² | - |
| 1777572919 | 13.89° C | 48% | 1028.6 hPa | 0 mm | - | 19 W/m² | - |
| 1777572019 | 14.44° C | 47% | 1028.5 hPa | 0 mm | - | 40 W/m² | - |
| 1777571119 | 15° C | 48% | 1028.5 hPa | 0 mm | - | 77 W/m² | - |
| 1777570219 | 15° C | 47% | 1028.7 hPa | 0 mm | - | 111 W/m² | - |
| 1777569319 | 15° C | 46% | 1028.5 hPa | 0 mm | - | 144 W/m² | - |
| 1777568419 | 15.56° C | 45% | 1028.6 hPa | 0 mm | - | 160 W/m² | - |
| 1777567519 | 16.11° C | 44% | 1028.6 hPa | 0 mm | - | 197 W/m² | - |
| 1777566619 | 16.11° C | 43% | 1028.6 hPa | 0 mm | - | 225 W/m² | - |
| 1777565719 | 16.11° C | 44% | 1028.6 hPa | 0 mm | - | 281 W/m² | - |
| 1777564819 | 16.67° C | 42% | 1028.6 hPa | 0 mm | - | 346 W/m² | - |
* Rain latest hour (hover to see other rain measurements)
** Current wind speed in m/s (hover to see current wind gust speed)